Home   Weather   Baku   Past weeks
Flag for Azerbaijan

Past Weather in Baku, Azerbaijan — Yesterday and Last 2 Weeks

Now
61 °F

Passing clouds.


Feels Like: 61 °F
Forecast: 73 / 64 °F
Wind: 7 mph from South

Location: Baku / Bine Airport

Current Time: Oct 18, 2019 at 3:20:13 am

Latest Report: Oct 18, 2019 at 3:00 am


Visibility: N/A

Pressure: 30.12 "Hg

Humidity: 88%

Dew Point: 57 °F

Location of BakuLocation

Past Weather in Baku — Graph

°F

Baku Temperature Yesterday

Maximum temperature yesterday: 73 °F (at 1:00 pm)
Minimum temperature yesterday: 59 °F (at 6:30 am)
Average temperature yesterday: 66 °F

High & Low Weather Summary for the Past Weeks

 TemperatureHumidityPressure
High77 °F (Oct 3, 1:30 pm)100% (Oct 3, 4:30 am)30.42 "Hg (Oct 3, 4:30 am)
Low54 °F (Oct 4, 3:00 am)47% (Oct 4, 12:00 pm)29.56 "Hg (Oct 6, 11:00 pm)
Average67 °F75%30.09 "Hg
* Reported Oct 3 2:00 am — Oct 18 2:00 am, Baku. Weather by CustomWeather, © 2019

Note: Actual official high and low records may vary slightly from our data, if they occured in-between our weather recording intervals... More about our weather records

Advertising

Baku Weather History for the Previous 24 Hours

Scroll right to see more
 ConditionsComfort  
Time TempWeatherWind HumidityBarometerVisibility
2:00 am
Fri, Oct 18
63 °FPassing clouds.7 mph88%30.15 "HgN/A
1:30 am63 °FPassing clouds.7 mph83%30.15 "HgN/A
1:00 am64 °FPassing clouds.7 mph83%30.15 "HgN/A
12:30 am64 °FPassing clouds.8 mph83%30.15 "HgN/A
12:00 am66 °FPassing clouds.7 mph83%30.15 "HgN/A
11:30 pm
Thu, Oct 17
66 °FPassing clouds.6 mph83%30.15 "HgN/A
11:00 pm64 °FPassing clouds.7 mph83%30.18 "HgN/A
10:30 pm63 °FPassing clouds.7 mph88%30.18 "HgN/A
10:00 pm61 °FPassing clouds.6 mph88%30.18 "HgN/A
9:30 pm61 °FPassing clouds.5 mph83%30.18 "HgN/A
9:00 pm64 °FClear.6 mph83%30.18 "Hg10 mi
8:30 pm63 °FClear.6 mph83%30.18 "Hg10 mi
6:30 pm66 °FClear.8 mph78%30.18 "Hg10 mi
6:00 pm68 °FClear.5 mph73%30.18 "Hg10 mi
5:30 pm68 °FScattered clouds.6 mph69%30.18 "HgN/A
5:00 pm70 °FScattered clouds.9 mph69%30.18 "HgN/A
4:30 pm70 °FScattered clouds.10 mph69%30.18 "HgN/A
4:00 pm72 °FScattered clouds.12 mph65%30.18 "HgN/A
3:30 pm73 °FScattered clouds.10 mph57%30.18 "HgN/A
3:00 pm73 °FScattered clouds.12 mph61%30.18 "HgN/A
2:30 pm73 °FScattered clouds.10 mph61%30.18 "HgN/A
2:00 pm73 °FScattered clouds.7 mph61%30.18 "HgN/A
1:30 pm72 °FScattered clouds.7 mph65%30.18 "HgN/A
1:00 pm73 °FScattered clouds.6 mph57%30.18 "HgN/A
12:30 pm72 °FScattered clouds.3 mph61%30.21 "HgN/A
12:00 pm70 °FPartly sunny.5 mph64%30.21 "HgN/A
11:30 am70 °FPartly sunny.2 mph64%30.21 "HgN/A
11:00 am68 °FPartly sunny.6 mph69%30.24 "HgN/A
10:30 am68 °FScattered clouds.7 mph69%30.24 "HgN/A
10:00 am68 °FScattered clouds.7 mph69%30.24 "HgN/A
9:30 am68 °FScattered clouds.8 mph69%30.24 "HgN/A
9:00 am68 °FScattered clouds.8 mph73%30.24 "HgN/A
8:30 am66 °FScattered clouds.7 mph73%30.21 "HgN/A
8:00 am63 °FScattered clouds.5 mph83%30.21 "HgN/A
7:30 am61 °FScattered clouds.3 mph88%30.21 "HgN/A
7:00 am59 °FScattered clouds.6 mph88%30.18 "HgN/A
6:30 am59 °FPassing clouds.7 mph88%30.18 "HgN/A
6:00 am61 °FPassing clouds.8 mph88%30.18 "HgN/A
5:30 am63 °FPassing clouds.8 mph83%30.18 "HgN/A
5:00 am64 °FPassing clouds.9 mph83%30.18 "HgN/A
4:30 am63 °FPassing clouds.7 mph88%30.18 "HgN/A
4:00 am63 °FPassing clouds.9 mph83%30.18 "HgN/A
3:30 am64 °FPassing clouds.12 mph78%30.15 "HgN/A
3:00 am64 °FPassing clouds.13 mph88%30.18 "HgN/A
Weather by CustomWeather, © 2019

See weather overview